Regional Weather Roundup
Issued by NWS Binghamton, NY

Home | Current Version | Previous Version | Text Only | Print | Product List | Glossary On
Versions: 1 2 3 4 5 6 7 8 9 10 11 12 13 14 15 16 17 18 19 20 21 22 23 24 25 26 27 28 29 30 31 32 33 34 35 36 37 38 39 40 41 42 43 44 45 46 47 48 49 50
783
ASUS41 KBGM 032310
RWRBGM

REGIONAL WEATHER ROUNDUP
NATIONAL WEATHER SERVICE BINGHAMTON NY
600 PM EST SAT DEC 03 2016

Note: "fair" indicates few or no clouds below 12,000 feet with no
significant weather and/or obstructions to visibility.

* = Station(s) that does not report precipitation, such as rain,
snow, etc, also no thunder or fog.

NYZ009-015>018-022>025-036-037-044>046-055>057-062-040000
...Central New York...

CITY           SKY/WX    TMP DP  RH WIND       PRES   REMARKS
Binghamton     CLOUDY    32  30  92 NW10G20   30.11R WCI  24
Cortland       CLOUDY    34  32  93 W6        30.14S WCI  29
Dansville      CLOUDY    38  29  70 NW10      30.21R WCI  31
Elmira         CLOUDY    40  26  57 NW12G20   30.17R WCI  33
Seneca Falls   CLOUDY    39  30  70 NW10      30.19S WCI  32
Ithaca         CLOUDY    34  30  85 NW16G23   30.16S WCI  24
Hamilton       CLOUDY    34  28  80 NW3       30.12S
Monticello     CLOUDY    34  28  80 NW13G18   30.09R WCI  25
Norwich        CLOUDY    36  27  69 N7        30.13F WCI  30
Oneonta        MOCLDY    32  27  80 W7G16     30.08S WCI  26
Penn Yan       CLOUDY    37  28  70 NW14      30.18S WCI  28
Rome           MIX PCPN  34  32  92 NW6       30.16R WCI  29
Sidney         DRIZZLE   36  34  93 NW6       30.14R WCI  31
Syracuse       FLURRIES  37  29  72 W13       30.16R WCI  29
$$

PAZ038>040-043-044-047-048-072-040000
...Northeast Pennsylvania...

CITY           SKY/WX    TMP DP  RH WIND       PRES   REMARKS
Hazleton       CLOUDY    37  28  70 W10G21    30.14S WCI  30
Scranton       CLOUDY    41  28  60 NW8       30.14R
$$
&&
KEY
WCI = Wind Chill Index
VSB = Visibility
HX  = Heat Index
$$




USA.gov is the U.S. government's official web portal to all federal, state and local government web resources and services.